Time,TemperatureF,DewpointF,PressureIn,WindDirection,WindDirectionDegrees,WindSpeedMPH,WindSpeedGustMPH,Humidity,HourlyPrecipIn,Conditions,Clouds,dailyrainin,SoftwareType,DateUTC
2013-02-28 00:02:00,3.6,-11.7,31.75,West,270,0.0,5.0,48,0.00,,,0.00,meteohub,2013-02-28 07:02:00,
2013-02-28 00:07:00,3.7,-11.9,31.75,West,270,0.0,5.0,47,0.00,,,0.00,meteohub,2013-02-28 07:07:00,
2013-02-28 00:12:00,3.6,-12.1,31.75,NW,315,0.0,4.0,47,0.00,,,0.00,meteohub,2013-02-28 07:12:00,
2013-02-28 00:17:00,3.9,-12.3,31.75,NW,315,0.0,2.0,46,0.00,,,0.00,meteohub,2013-02-28 07:17:00,
2013-02-28 00:22:00,3.6,-12.6,31.75,NW,315,2.0,0.0,46,0.00,,,0.00,meteohub,2013-02-28 07:22:00,
2013-02-28 00:27:00,3.2,-13.0,31.75,NW,315,0.0,2.0,46,0.00,,,0.00,meteohub,2013-02-28 07:27:00,
2013-02-28 00:33:00,2.3,-13.7,31.75,West,270,0.0,2.0,46,0.00,,,0.00,meteohub,2013-02-28 07:33:00,
2013-02-28 00:38:00,1.8,-14.3,31.75,NW,315,0.0,2.0,46,0.00,,,0.00,meteohub,2013-02-28 07:38:00,
2013-02-28 00:44:00,1.4,-14.6,31.75,West,270,2.0,0.0,46,0.00,,,0.00,meteohub,2013-02-28 07:44:00,
2013-02-28 00:50:00,1.2,-16.1,31.75,West,270,0.0,3.0,43,0.00,,,0.00,meteohub,2013-02-28 07:50:00,
2013-02-28 00:55:00,1.4,-14.1,31.76,West,270,4.0,4.0,47,0.00,,,0.00,meteohub,2013-02-28 07:55:00,
2013-02-28 01:00:00,1.4,-14.1,31.76,WNW,293,2.0,4.0,47,0.00,,,0.00,meteohub,2013-02-28 08:00:00,
2013-02-28 01:06:00,1.4,-14.1,31.76,WNW,293,2.0,4.0,47,0.00,,,0.00,meteohub,2013-02-28 08:06:00,
2013-02-28 01:12:00,0.9,-16.4,31.76,West,270,2.0,4.0,43,0.00,,,0.00,meteohub,2013-02-28 08:12:00,
2013-02-28 01:17:00,0.7,-16.6,31.76,West,270,2.0,2.0,43,0.00,,,0.00,meteohub,2013-02-28 08:17:00,
2013-02-28 01:22:00,0.9,-16.4,31.77,West,270,3.0,3.0,43,0.00,,,0.00,meteohub,2013-02-28 08:22:00,
2013-02-28 01:27:00,0.9,-16.4,31.77,West,270,1.0,4.0,43,0.00,,,0.00,meteohub,2013-02-28 08:27:00,
2013-02-28 01:32:00,0.9,-16.4,31.77,West,270,4.0,4.0,43,0.00,,,0.00,meteohub,2013-02-28 08:32:00,
2013-02-28 01:37:00,0.9,-16.4,31.77,West,270,3.0,4.0,43,0.00,,,0.00,meteohub,2013-02-28 08:37:00,
2013-02-28 01:42:00,0.9,-16.4,31.77,West,270,4.0,4.0,43,0.00,,,0.00,meteohub,2013-02-28 08:42:00,
2013-02-28 01:47:00,1.0,-16.2,31.77,West,270,0.0,4.0,43,0.00,,,0.00,meteohub,2013-02-28 08:47:00,
2013-02-28 01:52:00,1.0,-16.2,31.77,West,270,2.0,4.0,43,0.00,,,0.00,meteohub,2013-02-28 08:52:00,
2013-02-28 01:57:00,0.9,-16.4,31.77,West,270,4.0,4.0,43,0.00,,,0.00,meteohub,2013-02-28 08:57:00,
2013-02-28 02:02:00,1.2,-16.1,31.77,West,270,4.0,4.0,43,0.00,,,0.00,meteohub,2013-02-28 09:02:00,
2013-02-28 02:08:00,1.2,-16.1,31.77,West,270,4.0,4.0,43,0.00,,,0.00,meteohub,2013-02-28 09:08:00,
2013-02-28 02:13:00,1.6,-14.1,31.77,West,270,3.0,4.0,47,0.00,,,0.00,meteohub,2013-02-28 09:13:00,
2013-02-28 02:19:00,1.8,-13.9,31.77,West,270,2.0,5.0,47,0.00,,,0.00,meteohub,2013-02-28 09:19:00,
2013-02-28 02:24:00,1.6,-14.1,31.77,West,270,3.0,5.0,47,0.00,,,0.00,meteohub,2013-02-28 09:24:00,
2013-02-28 02:29:00,1.4,-14.1,31.78,West,270,6.0,6.0,47,0.00,,,0.00,meteohub,2013-02-28 09:29:00,
2013-02-28 02:35:00,1.6,-14.1,31.78,WSW,248,4.0,6.0,47,0.00,,,0.00,meteohub,2013-02-28 09:35:00,
2013-02-28 02:41:00,1.6,-14.1,31.78,West,270,3.0,6.0,47,0.00,,,0.00,meteohub,2013-02-28 09:41:00,
2013-02-28 02:46:00,1.2,-16.6,31.78,West,270,3.0,5.0,42,0.00,,,0.00,meteohub,2013-02-28 09:46:00,
2013-02-28 02:52:00,1.0,-16.2,31.78,West,270,3.0,4.0,43,0.00,,,0.00,meteohub,2013-02-28 09:52:00,
2013-02-28 02:57:00,1.0,-16.2,31.78,West,270,4.0,4.0,43,0.00,,,0.00,meteohub,2013-02-28 09:57:00,
2013-02-28 03:02:00,0.9,-16.4,31.78,West,270,4.0,5.0,43,0.00,,,0.00,meteohub,2013-02-28 10:02:00,
2013-02-28 03:07:00,0.9,-16.4,31.78,West,270,4.0,5.0,43,0.00,,,0.00,meteohub,2013-02-28 10:07:00,
2013-02-28 03:12:00,0.9,-16.4,31.78,SW,225,3.0,5.0,43,0.00,,,0.00,meteohub,2013-02-28 10:12:00,
2013-02-28 03:17:00,0.7,-16.6,31.78,West,270,5.0,5.0,43,0.00,,,0.00,meteohub,2013-02-28 10:17:00,
2013-02-28 03:22:00,1.2,-16.1,31.78,WSW,248,4.0,6.0,43,0.00,,,0.00,meteohub,2013-02-28 10:22:00,
2013-02-28 03:27:00,1.4,-14.1,31.78,West,270,4.0,6.0,47,0.00,,,0.00,meteohub,2013-02-28 10:27:00,
2013-02-28 03:32:00,1.2,-16.1,31.78,West,270,4.0,6.0,43,0.00,,,0.00,meteohub,2013-02-28 10:32:00,
2013-02-28 03:37:00,1.4,-14.1,31.78,West,270,4.0,5.0,47,0.00,,,0.00,meteohub,2013-02-28 10:37:00,
2013-02-28 03:42:00,1.2,-16.1,31.78,West,270,2.0,5.0,43,0.00,,,0.00,meteohub,2013-02-28 10:42:00,
2013-02-28 03:47:00,1.0,-16.2,31.78,West,270,3.0,5.0,43,0.00,,,0.00,meteohub,2013-02-28 10:47:00,
2013-02-28 03:53:00,0.5,-16.8,31.78,West,270,4.0,4.0,43,0.00,,,0.00,meteohub,2013-02-28 10:53:00,
2013-02-28 03:59:00,0.3,-17.0,31.78,West,270,4.0,4.0,43,0.00,,,0.00,meteohub,2013-02-28 10:59:00,
2013-02-28 04:04:00,0.1,-17.1,31.78,West,270,3.0,4.0,43,0.00,,,0.00,meteohub,2013-02-28 11:04:00,
2013-02-28 04:10:00,0.0,-17.1,31.78,West,270,2.0,5.0,43,0.00,,,0.00,meteohub,2013-02-28 11:10:00,
2013-02-28 04:15:00,0.3,-17.0,31.78,West,270,4.0,5.0,43,0.00,,,0.00,meteohub,2013-02-28 11:15:00,
2013-02-28 04:21:00,0.3,-17.0,31.78,West,270,2.0,4.0,43,0.00,,,0.00,meteohub,2013-02-28 11:21:00,
2013-02-28 04:26:00,0.1,-17.1,31.78,West,270,2.0,4.0,43,0.00,,,0.00,meteohub,2013-02-28 11:26:00,
2013-02-28 04:31:00,0.1,-17.1,31.78,NW,315,0.0,4.0,43,0.00,,,0.00,meteohub,2013-02-28 11:31:00,
2013-02-28 04:37:00,0.3,-17.0,31.78,West,270,0.0,2.0,43,0.00,,,0.00,meteohub,2013-02-28 11:37:00,
2013-02-28 04:42:00,0.5,-16.2,31.78,West,270,0.0,2.0,44,0.00,,,0.00,meteohub,2013-02-28 11:42:00,
2013-02-28 04:47:00,0.5,-16.8,31.78,NW,315,0.0,0.0,43,0.00,,,0.00,meteohub,2013-02-28 11:47:00,
2013-02-28 04:52:00,-0.2,-17.3,31.78,West,270,0.0,2.0,43,0.00,,,0.00,meteohub,2013-02-28 11:52:00,
2013-02-28 04:57:00,-0.6,-17.3,31.78,West,270,0.0,2.0,44,0.00,,,0.00,meteohub,2013-02-28 11:57:00,
2013-02-28 05:02:00,-1.1,-17.9,31.78,West,270,2.0,2.0,44,0.00,,,0.00,meteohub,2013-02-28 12:02:00,
2013-02-28 05:07:00,-1.1,-17.9,31.78,West,270,2.0,2.0,44,0.00,,,0.00,meteohub,2013-02-28 12:07:00,
2013-02-28 05:12:00,-1.7,-18.2,31.79,NW,315,0.0,2.0,44,0.00,,,0.00,meteohub,2013-02-28 12:12:00,
2013-02-28 05:17:00,-1.7,-18.2,31.79,East,90,0.0,2.0,44,0.00,,,0.00,meteohub,2013-02-28 12:17:00,
2013-02-28 05:22:00,-2.6,-18.6,31.79,West,270,0.0,2.0,45,0.00,,,0.00,meteohub,2013-02-28 12:22:00,
2013-02-28 05:27:00,-3.3,-19.3,31.79,SW,225,0.0,0.0,45,0.00,,,0.00,meteohub,2013-02-28 12:27:00,
2013-02-28 05:33:00,-4.2,-20.2,31.79,SW,225,0.0,0.0,45,0.00,,,0.00,meteohub,2013-02-28 12:33:00,
2013-02-28 05:38:00,-5.3,-20.7,31.79,SW,225,0.0,0.0,46,0.00,,,0.00,meteohub,2013-02-28 12:38:00,
2013-02-28 05:44:00,-5.1,-20.2,31.79,NW,315,0.0,0.0,47,0.00,,,0.00,meteohub,2013-02-28 12:44:00,
2013-02-28 05:49:00,-4.5,-19.3,31.79,South,180,0.0,0.0,48,0.00,,,0.00,meteohub,2013-02-28 12:49:00,
2013-02-28 05:55:00,-4.7,-19.5,31.79,SW,225,0.0,0.0,48,0.00,,,0.00,meteohub,2013-02-28 12:55:00,
2013-02-28 06:00:00,-4.7,-18.9,31.79,NE,45,2.0,2.0,49,0.00,,,0.00,meteohub,2013-02-28 13:00:00,
2013-02-28 06:06:00,-5.3,-19.8,31.79,SE,135,0.0,2.0,48,0.00,,,0.00,meteohub,2013-02-28 13:06:00,
2013-02-28 06:11:00,-6.3,-20.9,31.79,SE,135,0.0,2.0,48,0.00,,,0.00,meteohub,2013-02-28 13:11:00,
2013-02-28 06:16:00,-7.2,-21.8,31.79,South,180,0.0,2.0,48,0.00,,,0.00,meteohub,2013-02-28 13:16:00,
2013-02-28 06:22:00,-7.8,-24.0,31.78,South,180,0.0,0.0,44,0.00,,,0.00,meteohub,2013-02-28 13:22:00,
2013-02-28 06:27:00,-8.3,-24.9,31.78,SE,135,0.0,0.0,43,0.00,,,0.00,meteohub,2013-02-28 13:27:00,
2013-02-28 06:32:00,-8.7,-24.7,31.79,SE,135,0.0,0.0,44,0.00,,,0.00,meteohub,2013-02-28 13:32:00,
2013-02-28 06:37:00,-9.0,-25.1,31.78,SW,225,0.0,0.0,44,0.00,,,0.00,meteohub,2013-02-28 13:37:00,
2013-02-28 06:42:00,-9.2,-25.2,31.78,SW,225,0.0,0.0,44,0.00,,,0.00,meteohub,2013-02-28 13:42:00,
2013-02-28 06:47:00,-9.2,-25.2,31.79,SW,225,0.0,0.0,44,0.00,,,0.00,meteohub,2013-02-28 13:47:00,
2013-02-28 06:52:00,-9.0,-24.7,31.79,SW,225,0.0,0.0,45,0.00,,,0.00,meteohub,2013-02-28 13:52:00,
2013-02-28 06:57:00,-9.0,-24.7,31.79,SW,225,0.0,0.0,45,0.00,,,0.00,meteohub,2013-02-28 13:57:00,
2013-02-28 07:02:00,-9.0,-24.2,31.78,SW,225,0.0,0.0,46,0.00,,,0.00,meteohub,2013-02-28 14:02:00,
2013-02-28 07:07:00,-9.0,-24.2,31.78,SW,225,0.0,0.0,46,0.00,,,0.00,meteohub,2013-02-28 14:07:00,
2013-02-28 07:12:00,-8.1,-22.9,31.78,SW,225,0.0,0.0,47,0.00,,,0.00,meteohub,2013-02-28 14:12:00,
2013-02-28 07:17:00,-6.7,-19.3,31.79,West,270,0.0,0.0,53,0.00,,,0.00,meteohub,2013-02-28 14:17:00,
2013-02-28 07:22:00,-5.3,-17.7,31.79,West,270,0.0,2.0,54,0.00,,,0.00,meteohub,2013-02-28 14:22:00,
2013-02-28 07:27:00,-4.0,-16.8,31.79,SW,225,0.0,2.0,53,0.00,,,0.00,meteohub,2013-02-28 14:27:00,
2013-02-28 07:32:00,-2.9,-15.9,31.79,NE,45,0.0,2.0,53,0.00,,,0.00,meteohub,2013-02-28 14:32:00,
2013-02-28 07:37:00,-2.6,-15.5,31.79,NE,45,0.0,2.0,53,0.00,,,0.00,meteohub,2013-02-28 14:37:00,
2013-02-28 07:42:00,-2.0,-15.3,31.79,NE,45,0.0,2.0,52,0.00,,,0.00,meteohub,2013-02-28 14:42:00,
2013-02-28 07:47:00,-2.0,-15.7,31.79,East,90,0.0,0.0,51,0.00,,,0.00,meteohub,2013-02-28 14:47:00,
2013-02-28 07:53:00,-2.2,-16.6,31.79,East,90,3.0,3.0,49,0.00,,,0.00,meteohub,2013-02-28 14:53:00,
2013-02-28 07:58:00,-2.4,-17.3,31.79,NE,45,4.0,4.0,48,0.00,,,0.00,meteohub,2013-02-28 14:58:00,
2013-02-28 08:04:00,-2.6,-17.9,31.79,ENE,68,0.0,4.0,47,0.00,,,0.00,meteohub,2013-02-28 15:04:00,
2013-02-28 08:09:00,-1.8,-18.0,31.79,SE,135,0.0,4.0,45,0.00,,,0.00,meteohub,2013-02-28 15:09:00,
2013-02-28 08:15:00,-0.4,-16.6,31.79,East,90,0.0,4.0,45,0.00,,,0.00,meteohub,2013-02-28 15:15:00,
2013-02-28 08:21:00,2.1,-12.6,31.78,NE,45,0.0,0.0,49,0.00,,,0.00,meteohub,2013-02-28 15:21:00,
2013-02-28 08:26:00,5.0,-10.8,31.78,East,90,0.0,0.0,47,0.00,,,0.00,meteohub,2013-02-28 15:26:00,
2013-02-28 08:32:00,6.6,-9.8,31.78,NE,45,2.0,0.0,46,0.00,,,0.00,meteohub,2013-02-28 15:32:00,
2013-02-28 08:37:00,8.4,-9.0,31.79,NE,45,0.0,2.0,44,0.00,,,0.00,meteohub,2013-02-28 15:37:00,
2013-02-28 08:42:00,10.4,-5.8,31.79,NE,45,0.0,2.0,47,0.00,,,0.00,meteohub,2013-02-28 15:42:00,
2013-02-28 08:47:00,12.0,-4.7,31.78,East,90,0.0,2.0,46,0.00,,,0.00,meteohub,2013-02-28 15:47:00,
2013-02-28 08:52:00,13.6,-4.7,31.79,NE,45,0.0,0.0,43,0.00,,,0.00,meteohub,2013-02-28 15:52:00,
2013-02-28 08:57:00,13.6,-7.2,31.78,North,0,1.0,4.0,38,0.00,,,0.00,meteohub,2013-02-28 15:57:00,
2013-02-28 09:02:00,14.2,-8.0,31.78,NE,45,2.0,4.0,36,0.00,,,0.00,meteohub,2013-02-28 16:02:00,
2013-02-28 09:07:00,15.4,-7.4,31.78,NE,45,3.0,4.0,35,0.00,,,0.00,meteohub,2013-02-28 16:07:00,
2013-02-28 09:12:00,15.8,-8.1,31.79,NE,45,1.0,3.0,33,0.00,,,0.00,meteohub,2013-02-28 16:12:00,
2013-02-28 09:17:00,17.6,-7.2,31.79,NE,45,2.0,3.0,32,0.00,,,0.00,meteohub,2013-02-28 16:17:00,
2013-02-28 09:23:00,19.0,-6.7,31.78,SE,135,0.0,4.0,31,0.00,,,0.00,meteohub,2013-02-28 16:23:00,
2013-02-28 09:28:00,21.4,-3.8,31.78,North,0,4.0,4.0,32,0.00,,,0.00,meteohub,2013-02-28 16:28:00,
2013-02-28 09:33:00,21.9,-4.7,31.79,ENE,68,2.0,4.0,30,0.00,,,0.00,meteohub,2013-02-28 16:33:00,
2013-02-28 09:39:00,22.8,-4.0,31.78,NW,315,3.0,4.0,30,0.00,,,0.00,meteohub,2013-02-28 16:39:00,
2013-02-28 09:44:00,22.8,-4.7,31.79,North,0,4.0,4.0,29,0.00,,,0.00,meteohub,2013-02-28 16:44:00,
2013-02-28 09:50:00,23.0,-6.0,31.79,North,0,4.0,5.0,27,0.00,,,0.00,meteohub,2013-02-28 16:50:00,
2013-02-28 09:56:00,23.5,-5.6,31.79,NE,45,4.0,7.0,27,0.00,,,0.00,meteohub,2013-02-28 16:56:00,
2013-02-28 10:01:00,23.7,-6.2,31.79,NE,45,8.0,8.0,26,0.00,,,0.00,meteohub,2013-02-28 17:01:00,
2013-02-28 10:06:00,23.7,-6.2,31.79,NE,45,8.0,8.0,26,0.00,,,0.00,meteohub,2013-02-28 17:06:00,
2013-02-28 10:11:00,24.3,-5.6,31.79,NW,315,8.0,8.0,26,0.00,,,0.00,meteohub,2013-02-28 17:11:00,
2013-02-28 10:17:00,25.5,-4.5,31.79,North,0,8.0,8.0,26,0.00,,,0.00,meteohub,2013-02-28 17:17:00,
2013-02-28 10:22:00,27.0,-4.2,31.79,NW,315,5.0,17.0,25,0.00,,,0.00,meteohub,2013-02-28 17:22:00,
2013-02-28 10:27:00,28.6,-0.4,31.79,NE,45,5.0,17.0,28,0.00,,,0.00,meteohub,2013-02-28 17:27:00,
2013-02-28 10:32:00,29.1,0.1,31.79,NW,315,7.0,17.0,28,0.00,,,0.00,meteohub,2013-02-28 17:32:00,
2013-02-28 10:37:00,29.8,0.7,31.79,North,0,11.0,11.0,28,0.00,,,0.00,meteohub,2013-02-28 17:37:00,
2013-02-28 10:43:00,28.9,0.0,31.79,North,0,4.0,11.0,28,0.00,,,0.00,meteohub,2013-02-28 17:43:00,
2013-02-28 10:48:00,28.9,0.0,31.79,North,0,10.0,11.0,28,0.00,,,0.00,meteohub,2013-02-28 17:48:00,
2013-02-28 10:54:00,28.8,-0.2,31.79,NE,45,5.0,11.0,28,0.00,,,0.00,meteohub,2013-02-28 17:54:00,
2013-02-28 11:00:00,28.8,-0.2,31.79,NW,315,2.0,11.0,28,0.00,,,0.00,meteohub,2013-02-28 18:00:00,
2013-02-28 11:06:00,28.8,-0.2,31.79,NW,315,2.0,12.0,28,0.00,,,0.00,meteohub,2013-02-28 18:06:00,
2013-02-28 11:11:00,30.9,0.0,31.79,NW,315,3.0,12.0,26,0.00,,,0.00,meteohub,2013-02-28 18:11:00,
2013-02-28 11:17:00,30.9,0.0,31.79,West,270,4.0,10.0,26,0.00,,,0.00,meteohub,2013-02-28 18:17:00,
2013-02-28 11:22:00,30.2,-0.6,31.79,North,0,6.0,10.0,26,0.00,,,0.00,meteohub,2013-02-28 18:22:00,
2013-02-28 11:27:00,31.3,0.3,31.79,NW,315,8.0,11.0,26,0.00,,,0.00,meteohub,2013-02-28 18:27:00,
2013-02-28 11:32:00,31.6,0.7,31.78,North,0,11.0,11.0,26,0.00,,,0.00,meteohub,2013-02-28 18:32:00,
2013-02-28 11:37:00,30.7,-0.9,31.78,NW,315,8.0,11.0,25,0.00,,,0.00,meteohub,2013-02-28 18:37:00,
2013-02-28 11:42:00,31.3,0.3,31.78,West,270,4.0,11.0,26,0.00,,,0.00,meteohub,2013-02-28 18:42:00,
2013-02-28 11:47:00,31.5,-0.4,31.78,NE,45,4.0,11.0,25,0.00,,,0.00,meteohub,2013-02-28 18:47:00,
2013-02-28 11:52:00,31.8,0.0,31.78,North,0,5.0,16.0,25,0.00,,,0.00,meteohub,2013-02-28 18:52:00,
2013-02-28 11:57:00,32.5,0.7,31.78,West,270,8.0,16.0,25,0.00,,,0.00,meteohub,2013-02-28 18:57:00,
2013-02-28 12:02:00,32.9,0.9,31.78,NW,315,6.0,16.0,25,0.00,,,0.00,meteohub,2013-02-28 19:02:00,
2013-02-28 12:07:00,31.6,-0.2,31.78,West,270,4.0,10.0,25,0.00,,,0.00,meteohub,2013-02-28 19:07:00,
2013-02-28 12:13:00,30.7,0.0,31.79,West,270,6.0,10.0,26,0.00,,,0.00,meteohub,2013-02-28 19:13:00,
2013-02-28 12:18:00,29.8,0.0,31.78,SW,225,7.0,10.0,27,0.00,,,0.00,meteohub,2013-02-28 19:18:00,
2013-02-28 12:24:00,28.2,-4.9,31.78,NNE,23,3.0,8.0,23,0.00,,,0.00,meteohub,2013-02-28 19:24:00,
2013-02-28 12:29:00,29.3,-0.6,31.78,West,270,6.0,16.0,27,0.00,,,0.00,meteohub,2013-02-28 19:29:00,
2013-02-28 12:35:00,30.9,0.0,31.77,West,270,7.0,16.0,26,0.00,,,0.00,meteohub,2013-02-28 19:35:00,
2013-02-28 12:40:00,32.7,0.7,31.77,NW,315,9.0,9.0,25,0.00,,,0.00,meteohub,2013-02-28 19:40:00,
2013-02-28 12:46:00,32.7,0.7,31.77,NW,315,8.0,11.0,25,0.00,,,0.00,meteohub,2013-02-28 19:46:00,
2013-02-28 12:52:00,31.6,-0.2,31.77,North,0,6.0,11.0,25,0.00,,,0.00,meteohub,2013-02-28 19:52:00,
2013-02-28 12:57:00,32.0,0.1,31.76,West,270,6.0,11.0,25,0.00,,,0.00,meteohub,2013-02-28 19:57:00,
2013-02-28 13:02:00,32.2,0.3,31.76,SW,225,6.0,10.0,25,0.00,,,0.00,meteohub,2013-02-28 20:02:00,
2013-02-28 13:07:00,32.2,0.3,31.76,SW,225,6.0,10.0,25,0.00,,,0.00,meteohub,2013-02-28 20:07:00,
2013-02-28 13:12:00,32.9,0.9,31.76,North,0,4.0,10.0,25,0.00,,,0.00,meteohub,2013-02-28 20:12:00,
2013-02-28 13:18:00,33.3,1.2,31.75,North,0,11.0,11.0,25,0.00,,,0.00,meteohub,2013-02-28 20:18:00,
2013-02-28 13:24:00,33.8,0.9,31.75,NNW,338,7.0,11.0,24,0.00,,,0.00,meteohub,2013-02-28 20:24:00,
2013-02-28 13:29:00,33.3,1.2,31.76,SW,225,4.0,11.0,25,0.00,,,0.00,meteohub,2013-02-28 20:29:00,
2013-02-28 13:35:00,32.5,0.7,31.75,East,90,11.0,11.0,25,0.00,,,0.00,meteohub,2013-02-28 20:35:00,
2013-02-28 13:41:00,31.5,1.4,31.75,North,0,3.0,12.0,27,0.00,,,0.00,meteohub,2013-02-28 20:41:00,
2013-02-28 13:46:00,30.7,0.7,31.76,West,270,4.0,12.0,27,0.00,,,0.00,meteohub,2013-02-28 20:46:00,
2013-02-28 13:52:00,31.5,1.4,31.76,West,270,3.0,12.0,27,0.00,,,0.00,meteohub,2013-02-28 20:52:00,
2013-02-28 13:57:00,32.2,1.2,31.76,SE,135,5.0,8.0,26,0.00,,,0.00,meteohub,2013-02-28 20:57:00,
2013-02-28 14:02:00,32.5,1.4,31.75,SSE,158,4.0,8.0,26,0.00,,,0.00,meteohub,2013-02-28 21:02:00,
2013-02-28 14:07:00,32.2,1.2,31.76,North,0,3.0,9.0,26,0.00,,,0.00,meteohub,2013-02-28 21:07:00,
2013-02-28 14:12:00,32.5,2.3,31.76,NW,315,3.0,9.0,27,0.00,,,0.00,meteohub,2013-02-28 21:12:00,
2013-02-28 14:17:00,32.2,1.2,31.76,NE,45,8.0,9.0,26,0.00,,,0.00,meteohub,2013-02-28 21:17:00,
2013-02-28 14:23:00,32.7,1.6,31.76,SW,225,5.0,9.0,26,0.00,,,0.00,meteohub,2013-02-28 21:23:00,
2013-02-28 14:28:00,32.9,1.8,31.76,WSW,248,8.0,9.0,26,0.00,,,0.00,meteohub,2013-02-28 21:28:00,
2013-02-28 14:34:00,33.4,2.3,31.76,North,0,6.0,8.0,26,0.00,,,0.00,meteohub,2013-02-28 21:34:00,
2013-02-28 14:39:00,30.4,0.3,31.76,NE,45,5.0,8.0,27,0.00,,,0.00,meteohub,2013-02-28 21:39:00,
2013-02-28 14:44:00,28.6,-0.4,31.76,NE,45,5.0,10.0,28,0.00,,,0.00,meteohub,2013-02-28 21:44:00,
2013-02-28 14:49:00,28.0,-3.3,31.76,NW,315,4.0,10.0,25,0.00,,,0.00,meteohub,2013-02-28 21:49:00,
2013-02-28 14:55:00,27.5,-3.6,31.76,West,270,5.0,10.0,25,0.00,,,0.00,meteohub,2013-02-28 21:55:00,
2013-02-28 15:00:00,27.1,-4.0,31.77,North,0,2.0,7.0,25,0.00,,,0.00,meteohub,2013-02-28 22:00:00,
2013-02-28 15:06:00,27.1,-4.0,31.76,North,0,2.0,7.0,25,0.00,,,0.00,meteohub,2013-02-28 22:06:00,
2013-02-28 15:11:00,27.3,-3.8,31.76,West,270,5.0,5.0,25,0.00,,,0.00,meteohub,2013-02-28 22:11:00,
2013-02-28 15:16:00,27.3,-3.1,31.77,NW,315,5.0,5.0,26,0.00,,,0.00,meteohub,2013-02-28 22:16:00,
2013-02-28 15:22:00,27.0,-3.5,31.77,NW,315,8.0,8.0,26,0.00,,,0.00,meteohub,2013-02-28 22:22:00,
2013-02-28 15:27:00,26.8,-2.7,31.77,WNW,293,7.0,8.0,27,0.00,,,0.00,meteohub,2013-02-28 22:27:00,
2013-02-28 15:32:00,26.1,-1.8,31.77,East,90,4.0,8.0,29,0.00,,,0.00,meteohub,2013-02-28 22:32:00,
2013-02-28 15:37:00,26.1,0.1,31.78,SE,135,2.0,8.0,32,0.00,,,0.00,meteohub,2013-02-28 22:37:00,
2013-02-28 15:42:00,27.0,1.0,31.77,NNE,23,8.0,8.0,32,0.00,,,0.00,meteohub,2013-02-28 22:42:00,
2013-02-28 15:47:00,26.2,1.0,31.77,NW,315,4.0,11.0,33,0.00,,,0.00,meteohub,2013-02-28 22:47:00,
2013-02-28 15:52:00,25.5,0.3,31.78,North,0,5.0,11.0,33,0.00,,,0.00,meteohub,2013-02-28 22:52:00,
2013-02-28 15:57:00,25.2,0.7,31.78,NW,315,5.0,11.0,34,0.00,,,0.00,meteohub,2013-02-28 22:57:00,
2013-02-28 16:02:00,25.5,0.3,31.78,NE,45,4.0,8.0,33,0.00,,,0.00,meteohub,2013-02-28 23:02:00,
2013-02-28 16:07:00,25.3,0.3,31.78,South,180,0.0,7.0,33,0.00,,,0.00,meteohub,2013-02-28 23:07:00,
2013-02-28 16:12:00,25.2,0.1,31.78,North,0,3.0,6.0,33,0.00,,,0.00,meteohub,2013-02-28 23:12:00,
2013-02-28 16:17:00,24.8,-0.2,31.78,East,90,4.0,6.0,33,0.00,,,0.00,meteohub,2013-02-28 23:17:00,
2013-02-28 16:22:00,23.9,1.4,31.78,NE,45,3.0,6.0,37,0.00,,,0.00,meteohub,2013-02-28 23:22:00,
2013-02-28 16:27:00,23.2,2.5,31.77,SW,225,2.0,5.0,40,0.00,,,0.00,meteohub,2013-02-28 23:27:00,
2013-02-28 16:32:00,23.0,3.9,31.78,East,90,2.0,6.0,43,0.00,,,0.00,meteohub,2013-02-28 23:32:00,
2013-02-28 16:37:00,22.8,4.1,31.78,North,0,4.0,6.0,44,0.00,,,0.00,meteohub,2013-02-28 23:37:00,
2013-02-28 16:42:00,22.3,3.7,31.78,East,90,2.0,6.0,44,0.00,,,0.00,meteohub,2013-02-28 23:42:00,
2013-02-28 16:48:00,22.1,3.9,31.78,NE,45,1.0,5.0,45,0.00,,,0.00,meteohub,2013-02-28 23:48:00,
2013-02-28 16:53:00,21.6,3.6,31.77,East,90,1.0,5.0,45,0.00,,,0.00,meteohub,2013-02-28 23:53:00,
2013-02-28 16:58:00,21.2,3.2,31.78,SE,135,0.0,4.0,45,0.00,,,0.00,meteohub,2013-02-28 23:58:00,
2013-02-28 17:04:00,21.0,3.6,31.77,NW,315,3.0,3.0,46,0.00,,,0.00,meteohub,2013-03-01 00:04:00,
2013-02-28 17:09:00,20.8,3.7,31.77,NE,45,0.0,3.0,47,0.00,,,0.00,meteohub,2013-03-01 00:09:00,
2013-02-28 17:15:00,20.5,3.9,31.77,NW,315,2.0,4.0,48,0.00,,,0.00,meteohub,2013-03-01 00:15:00,
2013-02-28 17:21:00,19.9,3.4,31.77,North,0,4.0,4.0,48,0.00,,,0.00,meteohub,2013-03-01 00:21:00,
2013-02-28 17:26:00,19.4,3.4,31.77,SE,135,1.0,4.0,49,0.00,,,0.00,meteohub,2013-03-01 00:26:00,
2013-02-28 17:32:00,19.0,1.6,31.77,North,0,7.0,7.0,46,0.00,,,0.00,meteohub,2013-03-01 00:32:00,
2013-02-28 17:37:00,18.7,1.4,31.77,West,270,4.0,9.0,46,0.00,,,0.00,meteohub,2013-03-01 00:37:00,
2013-02-28 17:42:00,18.3,1.4,31.78,SW,225,2.0,9.0,47,0.00,,,0.00,meteohub,2013-03-01 00:42:00,
2013-02-28 17:47:00,18.1,1.2,31.77,West,270,1.0,9.0,47,0.00,,,0.00,meteohub,2013-03-01 00:47:00,
2013-02-28 17:52:00,17.8,1.4,31.77,ENE,68,4.0,8.0,48,0.00,,,0.00,meteohub,2013-03-01 00:52:00,
2013-02-28 17:58:00,17.4,2.3,31.77,East,90,3.0,8.0,51,0.00,,,0.00,meteohub,2013-03-01 00:58:00,
2013-02-28 18:03:00,17.1,2.5,31.77,North,0,2.0,8.0,52,0.00,,,0.00,meteohub,2013-03-01 01:03:00,
2013-02-28 18:08:00,16.9,2.3,31.77,NW,315,5.0,8.0,52,0.00,,,0.00,meteohub,2013-03-01 01:08:00,
2013-02-28 18:14:00,16.7,2.1,31.77,North,0,3.0,8.0,52,0.00,,,0.00,meteohub,2013-03-01 01:14:00,
2013-02-28 18:20:00,16.7,2.1,31.78,North,0,4.0,9.0,52,0.00,,,0.00,meteohub,2013-03-01 01:20:00,
2013-02-28 18:25:00,16.5,1.9,31.78,North,0,2.0,8.0,52,0.00,,,0.00,meteohub,2013-03-01 01:25:00,
2013-02-28 18:31:00,16.3,1.8,31.78,NW,315,0.0,8.0,52,0.00,,,0.00,meteohub,2013-03-01 01:31:00,
2013-02-28 18:36:00,16.3,1.8,31.78,NW,315,3.0,7.0,52,0.00,,,0.00,meteohub,2013-03-01 01:36:00,
2013-02-28 18:42:00,16.3,1.8,31.78,NE,45,2.0,7.0,52,0.00,,,0.00,meteohub,2013-03-01 01:42:00,
2013-02-28 18:47:00,16.2,1.6,31.78,NE,45,4.0,6.0,52,0.00,,,0.00,meteohub,2013-03-01 01:47:00,
2013-02-28 18:52:00,16.0,1.9,31.78,North,0,2.0,6.0,53,0.00,,,0.00,meteohub,2013-03-01 01:52:00,
2013-02-28 18:57:00,15.8,1.8,31.78,NNW,338,2.0,6.0,53,0.00,,,0.00,meteohub,2013-03-01 01:57:00,
2013-02-28 19:03:00,15.8,1.8,31.78,SW,225,2.0,4.0,53,0.00,,,0.00,meteohub,2013-03-01 02:03:00,
2013-02-28 19:08:00,15.6,2.3,31.78,NW,315,2.0,4.0,55,0.00,,,0.00,meteohub,2013-03-01 02:08:00,
2013-02-28 19:14:00,15.4,2.1,31.78,East,90,1.0,3.0,55,0.00,,,0.00,meteohub,2013-03-01 02:14:00,
2013-02-28 19:19:00,15.6,2.7,31.79,NW,315,2.0,4.0,56,0.00,,,0.00,meteohub,2013-03-01 02:19:00,
2013-02-28 19:24:00,15.6,2.7,31.78,North,0,0.0,4.0,56,0.00,,,0.00,meteohub,2013-03-01 02:24:00,
2013-02-28 19:29:00,15.6,2.7,31.79,SW,225,1.0,4.0,56,0.00,,,0.00,meteohub,2013-03-01 02:29:00,
2013-02-28 19:35:00,15.6,3.0,31.79,NW,315,1.0,3.0,57,0.00,,,0.00,meteohub,2013-03-01 02:35:00,
2013-02-28 19:40:00,15.6,3.0,31.79,NNE,23,4.0,4.0,57,0.00,,,0.00,meteohub,2013-03-01 02:40:00,
2013-02-28 19:46:00,15.8,2.8,31.79,East,90,2.0,4.0,56,0.00,,,0.00,meteohub,2013-03-01 02:46:00,
2013-02-28 19:52:00,15.6,2.7,31.79,SE,135,0.0,4.0,56,0.00,,,0.00,meteohub,2013-03-01 02:52:00,
2013-02-28 19:57:00,15.6,2.7,31.79,West,270,2.0,4.0,56,0.00,,,0.00,meteohub,2013-03-01 02:57:00,
2013-02-28 20:02:00,15.6,2.7,31.79,West,270,1.0,3.0,56,0.00,,,0.00,meteohub,2013-03-01 03:02:00,
2013-02-28 20:07:00,15.6,2.7,31.79,ENE,68,2.0,3.0,56,0.00,,,0.00,meteohub,2013-03-01 03:07:00,
2013-02-28 20:12:00,15.6,2.7,31.79,WNW,293,4.0,4.0,56,0.00,,,0.00,meteohub,2013-03-01 03:12:00,
2013-02-28 20:17:00,15.4,2.5,31.78,North,0,4.0,4.0,56,0.00,,,0.00,meteohub,2013-03-01 03:17:00,
2013-02-28 20:22:00,15.6,2.7,31.79,North,0,0.0,4.0,56,0.00,,,0.00,meteohub,2013-03-01 03:22:00,
2013-02-28 20:28:00,15.6,2.7,31.79,North,0,2.0,4.0,56,0.00,,,0.00,meteohub,2013-03-01 03:28:00,
2013-02-28 20:33:00,15.8,2.8,31.78,NE,45,0.0,4.0,56,0.00,,,0.00,meteohub,2013-03-01 03:33:00,
2013-02-28 20:39:00,15.6,3.0,31.78,North,0,2.0,5.0,57,0.00,,,0.00,meteohub,2013-03-01 03:39:00,
2013-02-28 20:45:00,15.6,3.0,31.79,NE,45,0.0,5.0,57,0.00,,,0.00,meteohub,2013-03-01 03:45:00,
2013-02-28 20:50:00,15.6,3.0,31.79,West,270,1.0,4.0,57,0.00,,,0.00,meteohub,2013-03-01 03:50:00,
2013-02-28 20:56:00,15.8,2.8,31.78,SE,135,3.0,5.0,56,0.00,,,0.00,meteohub,2013-03-01 03:56:00,
2013-02-28 21:01:00,15.8,2.8,31.79,SW,225,0.0,5.0,56,0.00,,,0.00,meteohub,2013-03-01 04:01:00,
2013-02-28 21:07:00,15.8,2.8,31.79,SW,225,0.0,4.0,56,0.00,,,0.00,meteohub,2013-03-01 04:07:00,
2013-02-28 21:12:00,15.8,2.8,31.79,West,270,2.0,4.0,56,0.00,,,0.00,meteohub,2013-03-01 04:12:00,
2013-02-28 21:17:00,15.8,2.8,31.79,West,270,3.0,4.0,56,0.00,,,0.00,meteohub,2013-03-01 04:17:00,
2013-02-28 21:22:00,16.0,3.0,31.79,NE,45,4.0,5.0,56,0.00,,,0.00,meteohub,2013-03-01 04:22:00,
2013-02-28 21:27:00,16.0,3.0,31.79,North,0,0.0,5.0,56,0.00,,,0.00,meteohub,2013-03-01 04:27:00,
2013-02-28 21:32:00,15.8,2.8,31.79,NW,315,2.0,5.0,56,0.00,,,0.00,meteohub,2013-03-01 04:32:00,
2013-02-28 21:37:00,15.8,3.2,31.79,NW,315,0.0,4.0,57,0.00,,,0.00,meteohub,2013-03-01 04:37:00,
2013-02-28 21:43:00,15.8,3.6,31.79,NNW,338,3.0,4.0,58,0.00,,,0.00,meteohub,2013-03-01 04:43:00,
2013-02-28 21:48:00,15.8,3.6,31.79,SW,225,0.0,4.0,58,0.00,,,0.00,meteohub,2013-03-01 04:48:00,
2013-02-28 21:54:00,15.8,4.5,31.79,West,270,3.0,5.0,60,0.00,,,0.00,meteohub,2013-03-01 04:54:00,
2013-02-28 21:59:00,15.8,4.5,31.78,West,270,0.0,5.0,60,0.00,,,0.00,meteohub,2013-03-01 04:59:00,
2013-02-28 22:00:00,15.8,4.5,31.78,SW,225,0.0,5.0,60,0.00,,,0.00,meteohub,2013-03-01 05:00:00,
2013-02-28 22:01:00,15.8,4.5,31.79,NW,315,0.0,5.0,60,0.00,,,0.00,meteohub,2013-03-01 05:01:00,
2013-02-28 22:03:00,15.8,4.5,31.79,West,270,0.0,5.0,60,0.00,,,0.00,meteohub,2013-03-01 05:03:00,
2013-02-28 22:05:00,15.8,4.5,31.79,South,180,0.0,4.0,60,0.00,,,0.00,meteohub,2013-03-01 05:05:00,
2013-02-28 22:08:00,15.8,4.5,31.78,SW,225,0.0,4.0,60,0.00,,,0.00,meteohub,2013-03-01 05:08:00,
2013-02-28 22:13:00,15.8,4.5,31.78,West,270,0.0,2.0,60,0.00,,,0.00,meteohub,2013-03-01 05:13:00,
2013-02-28 22:19:00,15.8,4.5,31.78,South,180,0.0,2.0,60,0.00,,,0.00,meteohub,2013-03-01 05:19:00,
2013-02-28 22:24:00,15.8,4.5,31.78,West,270,0.0,2.0,60,0.00,,,0.00,meteohub,2013-03-01 05:24:00,
2013-02-28 22:30:00,15.8,4.5,31.78,North,0,0.0,2.0,60,0.00,,,0.00,meteohub,2013-03-01 05:30:00,
2013-02-28 22:35:00,15.6,4.6,31.78,NW,315,0.0,2.0,61,0.00,,,0.00,meteohub,2013-03-01 05:35:00,
2013-02-28 22:41:00,15.6,4.6,31.78,NW,315,0.0,1.0,61,0.00,,,0.00,meteohub,2013-03-01 05:41:00,
2013-02-28 22:46:00,15.4,4.8,31.78,SW,225,3.0,0.0,62,0.00,,,0.00,meteohub,2013-03-01 05:46:00,
2013-02-28 22:51:00,15.4,4.8,31.78,West,270,0.0,3.0,62,0.00,,,0.00,meteohub,2013-03-01 05:51:00,
2013-02-28 22:57:00,15.4,4.8,31.78,South,180,0.0,3.0,62,0.00,,,0.00,meteohub,2013-03-01 05:57:00,
2013-02-28 23:02:00,15.4,4.8,31.78,SW,225,0.0,3.0,62,0.00,,,0.00,meteohub,2013-03-01 06:02:00,
2013-02-28 23:07:00,15.4,4.8,31.78,SW,225,0.0,3.0,62,0.00,,,0.00,meteohub,2013-03-01 06:07:00,
2013-02-28 23:12:00,15.4,4.8,31.77,SE,135,0.0,3.0,62,0.00,,,0.00,meteohub,2013-03-01 06:12:00,
2013-02-28 23:17:00,15.4,4.8,31.78,WSW,248,0.0,3.0,62,0.00,,,0.00,meteohub,2013-03-01 06:17:00,
2013-02-28 23:22:00,15.4,4.8,31.78,West,270,2.0,3.0,62,0.00,,,0.00,meteohub,2013-03-01 06:22:00,
2013-02-28 23:28:00,15.4,4.8,31.78,NW,315,0.0,3.0,62,0.00,,,0.00,meteohub,2013-03-01 06:28:00,
2013-02-28 23:34:00,15.4,4.8,31.78,NW,315,2.0,4.0,62,0.00,,,0.00,meteohub,2013-03-01 06:34:00,
2013-02-28 23:39:00,15.4,4.5,31.77,SW,225,0.0,4.0,61,0.00,,,0.00,meteohub,2013-03-01 06:39:00,
2013-02-28 23:44:00,15.4,4.5,31.77,West,270,0.0,4.0,61,0.00,,,0.00,meteohub,2013-03-01 06:44:00,
2013-02-28 23:50:00,15.4,4.5,31.77,East,90,0.0,0.0,61,0.00,,,0.00,meteohub,2013-03-01 06:50:00,
2013-02-28 23:55:00,15.3,4.3,31.77,East,90,0.0,0.0,61,0.00,,,0.00,meteohub,2013-03-01 06:55:00,